Sussex, NJ

12:54 PM EDT on March 27, 2017 (GMT -0400)
Sussex

Weather History for KFWN - May, 2014

Change the Weather History Date:

Thursday, May 8, 2014

  Actual Average Record
Temperature  
Mean Temperature 57 °F -  
Max Temperature 63 °F 68 °F 88 °F (1959)
Min Temperature 51 °F 38 °F 26 °F (1974)
Degree Days  
Heating Degree Days 8    
Growing Degree Days 7 (Base 50)    
Moisture  
Dew Point 51 °F    
Average Humidity 83    
Maximum Humidity 93    
Minimum Humidity 59    
Precipitation  
Precipitation 0.00 in - - ()
Sea Level Pressure  
Sea Level Pressure 30.15 in    
Wind  
Wind Speed 1 mph (East)    
Max Wind Speed 7 mph    
Max Gust Speed -    
Visibility 7 miles    
Events      
Averages and records for this station are not official NWS values.
T = Trace of Precipitation, MM = Missing Value Source: NWS Daily Summary

Daily Weather History Graph

Daily Weather History Graph

Search for Another Location

Airport or City:

Trip Planner

Search our weather history database for the weather conditions in past years. The results will help you decide how hot, cold, wet, or windy it might be!

Date:

Astronomy

May. 08, 2014 Rise Set
Actual Time 5:47 AM EDT 8:02 PM EDT
Civil Twilight 5:16 AM EDT 8:33 PM EDT
Nautical Twilight 4:39 AM EDT 9:11 PM EDT
Astronomical Twilight 3:57 AM EDT 9:53 PM EDT
Moon 1:57 PM EDT (5/8) 2:21 AM EDT (5/8)
Length of Visible Light 15h 16m
Length of Day
14h 15m
Waxing Gibbous, 64% of the Moon is Illuminated
May 8
Waxing Gibbous
May 14
Full
May 21
Last Quarter
May 28
New
Jun 5
First Quarter

Hourly Weather History & Observations

Time (EDT) Temp. Dew Point Humidity Pressure Visibility Wind Dir Wind Speed Gust Speed Precip Events Conditions
12:53 AM 55.0 °F 41.0 °F 59% 30.19 in 10.0 mi Calm Calm - N/A   Overcast
1:53 AM 53.1 °F 44.1 °F 71% 30.18 in 9.0 mi SW 3.5 mph - N/A   Overcast
2:53 AM 53.1 °F 46.9 °F 80% 30.18 in 10.0 mi Calm Calm - N/A   Overcast
3:53 AM 52.0 °F 48.9 °F 89% 30.17 in 5.0 mi Calm Calm - N/A   Overcast
4:16 AM 52.0 °F 48.9 °F 89% 30.17 in 2.5 mi Calm Calm - N/A   Overcast
4:25 AM 52.0 °F 48.0 °F 86% 30.17 in 4.0 mi Calm Calm - N/A   Overcast
4:49 AM 51.8 °F 48.2 °F 88% 30.17 in 3.0 mi Calm Calm - N/A   Overcast
4:53 AM 52.0 °F 48.9 °F 89% 30.17 in 3.0 mi Calm Calm - N/A   Overcast
5:53 AM 52.0 °F 48.9 °F 89% 30.17 in 6.0 mi Calm Calm - N/A   Overcast
6:53 AM 53.1 °F 48.9 °F 86% 30.17 in 5.0 mi Calm Calm - N/A   Overcast
7:17 AM 53.1 °F 48.9 °F 86% 30.16 in 4.0 mi Calm Calm - N/A   Overcast
7:46 AM 53.1 °F 48.9 °F 86% 30.17 in 4.0 mi Calm Calm - N/A   Overcast
7:53 AM 53.1 °F 48.9 °F 86% 30.17 in 4.0 mi Calm Calm - N/A   Overcast
8:31 AM 54.0 °F 50.0 °F 86% 30.18 in 5.0 mi Calm Calm - N/A   Overcast
8:53 AM 55.0 °F 52.0 °F 89% 30.17 in 4.0 mi Calm Calm - N/A   Overcast
9:53 AM 55.0 °F 50.0 °F 83% 30.16 in 8.0 mi Calm Calm - N/A   Overcast
10:46 AM 55.9 °F 52.0 °F 87% 30.15 in 8.0 mi Calm Calm - N/A   Overcast
10:53 AM 55.9 °F 52.0 °F 87% 30.16 in 8.0 mi ENE 3.5 mph - N/A   Overcast
11:17 AM 55.9 °F 52.0 °F 87% 30.16 in 8.0 mi Calm Calm - N/A   Overcast
11:53 AM 57.0 °F 52.0 °F 83% 30.15 in 8.0 mi Calm Calm - N/A   Overcast
12:30 PM 57.0 °F 52.0 °F 83% 30.14 in 9.0 mi East 3.5 mph - N/A   Overcast
12:48 PM 57.2 °F 53.6 °F 88% 30.14 in 10.0 mi Calm Calm - N/A   Overcast
12:53 PM 57.9 °F 53.1 °F 84% 30.13 in 10.0 mi Calm Calm - N/A   Overcast
2:39 PM 60.1 °F 53.1 °F 78% 30.12 in 10.0 mi Calm Calm - N/A   Overcast
2:53 PM 60.1 °F 53.1 °F 78% 30.12 in 10.0 mi Calm Calm - N/A   Overcast
3:53 PM 61.0 °F 54.0 °F 78% 30.11 in 8.0 mi Calm Calm - N/A   Overcast
4:36 PM 62.1 °F 54.0 °F 75% 30.10 in 10.0 mi Calm Calm - N/A   Overcast
5:09 PM 62.1 °F 54.0 °F 75% 30.09 in 10.0 mi ENE 3.5 mph - N/A   Overcast
5:17 PM 62.1 °F 53.1 °F 72% 30.10 in 10.0 mi Calm Calm - N/A   Overcast
5:53 PM 63.0 °F 54.0 °F 72% 30.09 in 10.0 mi Calm Calm - N/A   Overcast
6:42 PM 62.1 °F 54.0 °F 75% 30.10 in 10.0 mi East 3.5 mph - N/A   Overcast
6:53 PM 62.1 °F 54.0 °F 75% 30.11 in 10.0 mi ENE 3.5 mph - N/A   Overcast
7:53 PM 61.0 °F 54.0 °F 78% 30.12 in 10.0 mi Calm Calm - N/A   Mostly Cloudy
8:50 PM 57.2 °F 53.6 °F 88% 30.12 in 10.0 mi Calm Calm - N/A   Scattered Clouds
8:53 PM 57.0 °F 53.1 °F 87% 30.12 in 10.0 mi Calm Calm - N/A   Partly Cloudy
9:35 PM 55.9 °F 53.1 °F 90% 30.15 in 6.0 mi Calm Calm - N/A   Mostly Cloudy
9:53 PM 55.9 °F 53.1 °F 90% 30.15 in 5.0 mi Calm Calm - N/A   Overcast
10:53 PM 55.9 °F 54.0 °F 93% 30.16 in 6.0 mi Calm Calm - N/A   Overcast
11:15 PM 57.0 °F 54.0 °F 89% 30.16 in 6.0 mi Calm Calm - N/A   Overcast
11:53 PM 57.9 °F 53.1 °F 84% 30.17 in 5.0 mi SE 6.9 mph - N/A   Haze